Chicago, Illinois, United States (60601)
Lat: 41.85N, Lon: 87.65W
Wx Zone: ILZ014
Local Info
Past Weather Observations for Monday, April 14, 2014

NOTE: This archive is for the closest National Weather Service station to Chicago. Information may differ from the station used for current weather conditions.

Time Weather Temperature Dewpoint Humidity Pressure Winds Precip Visibility
23:51
Overcast
Light Snow
30°F / -1°C 28°F / -2°C 93% 29.98 in
(1015 mb)
NNW 11.5 mph
(NNW 19 kph)
0.00 in
(0.00 mm)
10SM
23:42
Overcast
Light Snow
30°F / -1°C 28°F / -2°C 93% 29.98 in
(1015 mb)
NNW 11.5 mph
(NNW 19 kph)
0.00 in
(0.00 mm)
9SM
22:51
Overcast
Light Snow
32°F / 0°C 28°F / -2°C 87% 29.98 in
(1015 mb)
NW 15 mph
(NW 24 kph)
0.00 in
(0.00 mm)
5SM
22:29
Overcast
Light Snow
32°F / 0°C 28°F / -2°C 87% 29.98 in
(1015 mb)
NNW 16.1 mph
(NNW 26 kph)
0.00 in
(0.00 mm)
6SM
22:16
Overcast
Light Snow
32°F / 0°C 28°F / -2°C 87% 29.98 in
(1015 mb)
NNW 12.7 mph
(NNW 20 kph)
0.00 in
(0.00 mm)
1 1/2SM
21:51
Overcast
Light Snow
32°F / 0°C 28°F / -2°C 87% 29.98 in
(1015 mb)
NNW 12.7 mph
(NNW 20 kph)
0.00 in
(0.00 mm)
4SM
20:51
Overcast
Light Snow
32°F / 0°C 28°F / -2°C 87% 29.95 in
(1014 mb)
NNW 15 mph
(NNW 24 kph)
0.00 in
(0.00 mm)
5SM
20:32
Overcast
Light Snow
32°F / 0°C 30°F / -1°C 93% 29.98 in
(1015 mb)
NNW 12.7 mph
(NNW 20 kph)
0.00 in
(0.00 mm)
5SM
20:24
Overcast
Light Snow
32°F / 0°C 30°F / -1°C 93% 29.98 in
(1015 mb)
NNW 12.7 mph
(NNW 20 kph)
0.00 in
(0.00 mm)
2SM
19:57
Overcast
Light Snow
32°F / 0°C 30°F / -1°C 93% 29.98 in
(1015 mb)
NNW 13.8 mph
(NNW 22 kph)
0.00 in
(0.00 mm)
2SM
19:51
Overcast
Light Snow
32°F / 0°C 30°F / -1°C 93% 29.98 in
(1015 mb)
NW 17.3 mph
(NW 28 kph)
0.00 in
(0.00 mm)
2SM
19:02
Overcast
Light Snow
34°F / 1°C 30°F / -1°C 87% 29.95 in
(1014 mb)
NNW 10.4 mph
(NNW 17 kph)
0.00 in
(0.00 mm)
1SM
18:51
Overcast
Light Snow
32°F / 0°C 30°F / -1°C 93% 29.95 in
(1014 mb)
NNW 15 mph
(NNW 24 kph)
0.01 in
(0.25 mm)
1SM
18:06
Overcast
Light Snow
34°F / 1°C 32°F / 0°C 93% 29.92 in
(1013 mb)
NNW 8.1 mph
(NNW 13 kph)
0.00 in
(0.00 mm)
3/4SM
17:51
Overcast
Light Snow
34°F / 1°C 30°F / -1°C 87% 29.92 in
(1013 mb)
NNW 12.7 mph
(NNW 20 kph)
0.01 in
(0.25 mm)
1SM
17:46
Overcast
Light Snow
34°F / 1°C 30°F / -1°C 87% 29.92 in
(1013 mb)
NNW 15 mph
(NNW 24 kph)
0.01 in
(0.25 mm)
1SM
17:34
Overcast
Light Snow
34°F / 1°C 30°F / -1°C 87% 29.92 in
(1013 mb)
NNW 16.1 mph
(NNW 26 kph)
0.01 in
(0.25 mm)
3/4SM
17:25
Overcast
Light Snow
34°F / 1°C 32°F / 0°C 93% 29.92 in
(1013 mb)
NW 12.7 mph
(NW 20 kph)
0.01 in
(0.25 mm)
1SM
17:12
Overcast
Light Snow
34°F / 1°C 30°F / -1°C 87% 29.92 in
(1013 mb)
N 10.4 mph
(N 17 kph)
0.00 in
(0.00 mm)
1SM
16:51
Overcast
Light Snow
36°F / 2°C 30°F / -1°C 81% 29.89 in
(1012 mb)
NNW 16.1 mph
(NNW 26 kph)
0.00 in
(0.00 mm)
1 1/2SM
16:46
Overcast
Light Snow
36°F / 2°C 30°F / -1°C 81% 29.89 in
(1012 mb)
NNW 18.4 mph
(NNW 30 kph)
0.00 in
(0.00 mm)
1 3/4SM
15:51
Overcast
36°F / 2°C 34°F / 1°C 93% 29.89 in
(1012 mb)
NW 16.1 mph
(NW 26 kph)
0.00 in
(0.00 mm)
10SM
14:51
Overcast
Drizzle
37°F / 3°C 34°F / 1°C 87% 29.86 in
(1011 mb)
NW 16.1 mph
(NW 26 kph)
0.00 in
(0.00 mm)
10SM
13:51
Overcast
41°F / 5°C 32°F / 0°C 70% 29.83 in
(1010 mb)
NNW 15 mph
(NNW 24 kph)
- 10SM
12:51
Overcast
43°F / 6°C 32°F / 0°C 66% 29.83 in
(1010 mb)
NNE 8.1 mph
(NNE 13 kph)
- 10SM
11:51
Overcast
41°F / 5°C 34°F / 1°C 76% 29.8 in
(1009 mb)
NNW 16.1 mph
(NNW 26 kph)
0.00 in
(0.00 mm)
10SM
10:51
Overcast
41°F / 5°C 36°F / 2°C 81% 29.8 in
(1009 mb)
N 13.8 mph
(N 22 kph)
- 10SM
10:34
Overcast
43°F / 6°C 36°F / 2°C 76% 29.8 in
(1009 mb)
N 11.5 mph
(N 19 kph)
- 10SM
09:51
Overcast
41°F / 5°C 36°F / 2°C 81% 29.8 in
(1009 mb)
NNW 20.7 mph
(NNW 33 kph)
- 10SM
08:51
Overcast
41°F / 5°C 36°F / 2°C 81% 29.74 in
(1007 mb)
N 13.8 mph
(N 22 kph)
- 10SM
07:51
Overcast
Light Rain
37°F / 3°C 34°F / 1°C 87% 29.71 in
(1006 mb)
N 12.7 mph
(N 20 kph)
0.06 in
(1.52 mm)
6SM
06:51
Overcast
Light Rain
41°F / 5°C 37°F / 3°C 87% 29.65 in
(1004 mb)
NNW 15 mph
(NNW 24 kph)
0.03 in
(0.76 mm)
10SM
06:36
Overcast
Light Rain
41°F / 5°C 37°F / 3°C 87% 29.65 in
(1004 mb)
NNW 19.6 mph
(NNW 32 kph)
0.03 in
(0.76 mm)
5SM
05:51
Overcast
Light Rain
41°F / 5°C 37°F / 3°C 87% 29.59 in
(1002 mb)
N 12.7 mph
(N 20 kph)
0.01 in
(0.25 mm)
10SM
04:51
Overcast
Light Rain
41°F / 5°C 39°F / 4°C 93% 29.53 in
(1000 mb)
NNW 24.2 mph
(NNW 39 kph)
0.01 in
(0.25 mm)
3SM
04:41
Overcast
Light Rain
43°F / 6°C 41°F / 5°C 93% 29.5 in
(999 mb)
NNW 29.9 mph
(NNW 48 kph)
0.01 in
(0.25 mm)
3SM
04:21
Overcast
Light Rain
54°F / 12°C 52°F / 11°C 94% 29.47 in
(998 mb)
SSW 16.1 mph
(SSW 26 kph)
0.00 in
(0.00 mm)
4SM
03:51
Overcast
57°F / 14°C 54°F / 12°C 88% 29.42 in
(996 mb)
SSW 24.2 mph
(SSW 39 kph)
- 10SM
03:18
Overcast
59°F / 15°C 54°F / 12°C 82% 29.39 in
(995 mb)
SW 20.7 mph
(SW 33 kph)
- 10SM
03:04
Mostly Cloudy
61°F / 16°C 55°F / 13°C 83% 29.39 in
(995 mb)
SW 17.3 mph
(SW 28 kph)
- 10SM
02:51
Mostly Cloudy
61°F / 16°C 55°F / 13°C 83% 29.39 in
(995 mb)
SW 21.9 mph
(SW 35 kph)
0.02 in
(0.51 mm)
10SM
01:51
Overcast
64°F / 18°C 59°F / 15°C 83% 29.36 in
(994 mb)
SSE 27.6 mph
(SSE 44 kph)
- 10SM
00:51
Overcast
64°F / 18°C 61°F / 16°C 88% 29.39 in
(995 mb)
S 16.1 mph
(S 26 kph)
0.00 in
(0.00 mm)
8SM
00:40
Overcast
64°F / 18°C 61°F / 16°C 88% 29.39 in
(995 mb)
S 18.4 mph
(S 30 kph)
0.00 in
(0.00 mm)
8SM
00:08
Overcast
Light Rain
64°F / 18°C 61°F / 16°C 88% 29.42 in
(996 mb)
S 15 mph
(S 24 kph)
0.00 in
(0.00 mm)
7SM
Time Weather Temperature Dewpoint Humidity Pressure Winds Precip Visibility


Weather for websites

WeatherForYou.com, LLC is not responsible for any damages or problems caused by this service. Current weather conditions are obtained from the closest station including government and personal stations which may have varying degrees of accuracy. Weather forecasts are derived from the NOAA NDFD. Like all things, this site belongs to Jesus Christ... He just trusts me to maintain it. If you have any questions or comments email webmaster@weatherforyou.com

Copyright © 2014, WeatherForYou.com LLC. All rights reserved.